"Pseudo-MPEC" for 2016-079B

Created 2017 Feb 22 13:43:59 UT using Find_Orb

Astrometry:
2016-079B    tC2017 02 13.28536 14 27 05.94 +13 44 17.7          11.3 R D0554Y00
2016-079B    tC2017 02 13.28623 14 27 15.72 +13 46 17.9          11.3 R D0554Y00
2016-079B    tC2017 02 13.28737 14 27 28.52 +13 48 55.0          11.3 R D0554Y00
2016-079B    tC2017 02 22.32117 13 36 52.16 +09 57 57.1          10.9 R      Y00
2016-079B    tC2017 02 22.32299 13 37 10.79 +10 01 20.7          10.8 R      Y00
2016-079B    tC2017 02 22.32441 13 37 25.44 +10 04 00.2          10.9 R      Y00
2016-079B    tC2017 02 22.33358 13 38 59.82 +10 20 57.4          10.8 R      Y00
2016-079B     C2017 02 22.33386 13 39 02.71 +10 21 28.4          10.4 R      Y00
2016-079B     C2017 02 22.33410 13 39 05.24 +10 21 55.4          10.6 R      Y00
2016-079B     C2017 02 22.33436 13 39 07.91 +10 22 23.8          10.6 R      Y00
2016-079B     C2017 02 22.33461 13 39 10.52 +10 22 51.5          10.6 R      Y00
2016-079B     C2017 02 22.33490 13 39 13.47 +10 23 23.2          10.6 R      Y00
2016-079B     C2017 02 22.33522 13 39 16.73 +10 23 57.6          10.5 R      Y00
2016-079B    tC2017 02 22.33550 13 39 19.67 +10 24 28.9          10.9 R      Y00
2016-079B     C2017 02 22.33577 13 39 22.48 +10 24 59.1          10.4 R      Y00
2016-079B    tC2017 02 22.33604 13 39 25.33 +10 25 28.8          10.9 R      Y00
2016-079B    tC2017 02 22.33637 13 39 28.59 +10 26 03.8          10.9 R      Y00
2016-079B    tC2017 02 22.33668 13 39 31.85 +10 26 38.2          10.8 R      Y00
2016-079B     C2017 02 22.33696 13 39 34.83 +10 27 09.8          10.4 R      Y00
2016-079B     C2017 02 22.33754 13 39 40.77 +10 28 12.7          10.3 R      Y00
2016-079B     C2017 02 22.33776 13 39 43.10 +10 28 37.7          10.1 R      Y00
2016-079B     C2017 02 22.33801 13 39 45.54 +10 29 03.2          10.2 R      Y00
2016-079B     C2017 02 22.33822 13 39 47.79 +10 29 26.9          10.3 R      Y00

Station data:
(Y00) SONEAR Observatory, Oliveira (S20.715080 W44.784960)  Brazil.  
    Observers C. Jacques, E. Pimentel, J. Barros.  Measurer C. Jacques.  0.28-m
    f/2.2 astrograph + CCD.

Orbital elements:  2016-079B
   Perigee 2017 Feb 21.975666 +/- 0.000164 TT = 23:24:57 (JD 2457806.475666)
Epoch 2017 Feb 22.0 TT = JDT 2457806.5                        Gray
M  10.4790113 +/- 0.07              (J2000 equatorial)
n 430.6397044490 +/- 0.0131         Peri.  202.1171788 +/- 0.0043
a 37485.282976 +/- 0.76             Node   190.5729352 +/- 0.008
e   0.829065963 +/- 0.00033         Incl.   25.7195190 +/- 0.015
P1203.77m/0.836d           H 26.2   G  0.15   U  9.8  
q 6407.5107270 +/- 12.2    Q 68563.055225 +/- 13.7
From 23 observations 2017 Feb. 13-22; mean residual 8".190
Residuals in arcseconds: 
170213 Y00 10.2- 5.71-    170222 Y00 1.82+ 1.14+    170222 Y00 4.85+ 4.35+    
170213 Y00 2.89- 1.65-    170222 Y00 2.12+ 1.40+    170222 Y00 6.29+ 5.35+    
170213 Y00 6.34+ 3.11+    170222 Y00 3.03+ 2.06+    170222 Y00 8.11+ 6.79+    
170222 Y00 19.4- 20.3-    170222 Y00 2.93+ 2.41+    170222 Y00 8.43+ 7.28+    
170222 Y00 17.8- 18.3-    170222 Y00 2.90+ 2.24+    170222 Y00 9.68+ 8.62+    
170222 Y00 14.9- 15.6-    170222 Y00 4.15+ 3.30+    170222 Y00 8.04+ 7.25+    
170222 Y00 .045+ .551-    170222 Y00 4.99+ 4.36+    170222 Y00 9.61+ 8.38+    
170222 Y00 .584+ .121+    170222 Y00 6.41+ 4.93+    

Ephemerides (geocentric):
Date (UTC) HH   RA              Dec         delta   r     elong  mag " sig PA
---- -- -- --  ------------   ------------  ------ ------ -----  --- ---- ---
2017 02 22 00  09 23 01.167   -20 12 01.03   14963 .98929 146.3  7.6  705  72
2017 02 22 01  11 23 34.380   -09 12 29.66   29206 .98940 155.1  8.8  125  58
2017 02 22 02  12 07 24.820   -04 10 10.90   39698 .98946 149.9  9.6   45  48
2017 02 22 03  12 34 01.985   -00 59 12.26   47824 .98950 145.2 10.1   22  39
2017 02 22 04  12 53 31.725   +01 21 37.29   54223 .98953 141.2 10.5   13  33
2017 02 22 05  13 09 18.767   +03 15 04.66   59235 .98955 137.9 10.8   10  36
2017 02 22 06  13 22 56.413   +04 51 58.97   63060 .98957 134.9 11.0    9  47
2017 02 22 07  13 35 15.816   +06 18 21.11   65824 .98957 132.1 11.2   11  58
2017 02 22 08  13 46 49.339   +07 37 57.36   67605 .98957 129.5 11.3   15  66
2017 02 22 09  13 58 00.363   +08 53 25.57   68450 .98957 126.9 11.4   20  70
2017 02 22 10  14 09 08.312   +10 06 48.49   68379 .98956 124.3 11.5   25  73
2017 02 22 11  14 20 31.890   +11 19 53.52   67391 .98955 121.7 11.5   33  75
2017 02 22 12  14 32 32.008   +12 34 27.42   65462 .98954 118.9 11.6   42  76
2017 02 22 13  14 45 35.524   +13 52 30.93   62540 .98952 115.9 11.6   53  76
2017 02 22 14  15 00 21.588   +15 16 38.46   58541 .98949 112.5 11.5   69  77
2017 02 22 15  15 17 54.773   +16 50 30.82   53330 .98947 108.4 11.4   90  78
2017 02 22 16  15 40 17.526   +18 39 57.87   46690 .98943 103.3 11.3  125  78
2017 02 22 17  16 12 10.523   +20 55 00.70   38251 .98940  96.2 11.2  190  80
2017 02 22 18  17 08 17.146   +23 50 29.20   27297 .98936  84.1 10.9  364  83
2017 02 22 19  20 05 03.429   +24 15 29.02   12310 .98934  48.2 11?? 1605 100
2017 02 22 20  09 09 14.963   -21 03 52.63   14087 .98948 143.9  7.5  919  73
2017 02 22 21  11 20 41.219   -09 27 23.81   28578 .98958 156.0  8.7  159  60
2017 02 22 22  12 06 02.341   -04 15 25.22   39221 .98965 151.0  9.5   61  53
2017 02 22 23  12 33 11.350   -01 00 40.70   47450 .98969 146.2 10.1   31  47
2017 02 23 00  12 52 56.521   +01 22 01.11   53929 .98972 142.2 10.5   19  45
2017 02 23 01  13 08 52.293   +03 16 31.51   59007 .98974 138.8 10.8   15  47
2017 02 23 02  13 22 35.271   +04 54 03.11   62890 .98976 135.8 11.0   14  54
2017 02 23 03  13 34 58.000   +06 20 47.12   65706 .98977 133.0 11.2   16  61
2017 02 23 04  13 46 33.493   +07 40 34.87   67537 .98977 130.3 11.3   19  67
2017 02 23 05  13 57 45.449   +08 56 06.73   68430 .98977 127.7 11.4   23  70
2017 02 23 06  14 08 53.406   +10 09 26.65   68406 .98976 125.1 11.5   29  73
2017 02 23 07  14 20 16.044   +11 22 22.23   67466 .98975 122.5 11.5   37  74
2017 02 23 08  14 32 14.091   +12 36 39.63   65586 .98973 119.7 11.5   46  75
2017 02 23 09  14 45 13.991   +13 54 17.95   62718 .98971 116.7 11.5   58  76
2017 02 23 10  14 59 54.055   +15 17 48.37   58777 .98969 113.3 11.5   73  77
2017 02 23 11  15 17 17.057   +16 50 45.61   53633 .98966 109.3 11.4   96  77
2017 02 23 12  15 39 21.074   +18 38 47.47   47074 .98963 104.2 11.3  132  78
2017 02 23 13  16 10 33.538   +20 51 30.62   38741 .98960  97.2 11.1  200  80
2017 02 23 14  17 04 37.525   +23 43 24.61   27944 .98956  85.4 10.9  375  83
2017 02 23 15  19 45 59.700   +24 50 41.65   13203 .98953  52.3 11?? 1532  98
2017 02 23 16  08 53 30.283   -21 58 24.18   13202 .98966 140.9  7.5 1187  75
2017 02 23 17  11 17 41.337   -09 43 10.31   27944 .98977 156.9  8.6  197  61
2017 02 23 18  12 04 38.793   -04 20 57.32   38741 .98984 152.1  9.5   77  55
2017 02 23 19  12 32 20.694   -01 02 18.09   47075 .98988 147.2 10.0   41  52
2017 02 23 20  12 52 21.576   +01 22 19.29   53634 .98992 143.2 10.4   26  51
2017 02 23 21  13 08 26.147   +03 17 54.25   58778 .98994 139.7 10.7   21  53
2017 02 23 22  13 22 14.453   +04 56 03.98   62719 .98995 136.6 11.0   19  58
2017 02 23 23  13 34 40.472   +06 23 10.40   65588 .98996 133.8 11.1   20  63
2017 02 24 00  13 46 17.890   +07 43 10.02   67469 .98997 131.1 11.3   23  67
2017 02 24 01  13 57 30.723   +08 58 45.87   68409 .98996 128.5 11.4   27  71
2017 02 24 02  14 08 38.633   +10 12 03.07   68433 .98996 125.9 11.5   33  73
2017 02 24 03  14 20 00.275   +11 24 49.55   67541 .98995 123.3 11.5   41  74
2017 02 24 04  14 31 56.199   +12 38 50.85   65711 .98993 120.5 11.5   50  75
2017 02 24 05  14 44 52.444   +13 56 04.53   62895 .98991 117.5 11.5   62  76
2017 02 24 06  14 59 26.501   +15 18 58.69   59013 .98989 114.1 11.5   78  76
2017 02 24 07  15 16 39.396   +16 51 02.18   53935 .98986 110.1 11.4  102  77
2017 02 24 08  15 38 25.009   +18 37 41.31   47457 .98983 105.1 11.3  139  78
2017 02 24 09  16 08 58.248   +20 48 09.68   39228 .98979  98.2 11.1  208  79
2017 02 24 10  17 01 06.882   +23 36 35.02   28585 .98975  86.8 10.9  386  83
2017 02 24 11  19 29 08.951   +25 14 40.65   14093 .98972  56.1 11?? 1465  96